OV1-5 DEB, 5361

Orbit data source: Space-Track

OV1-5 DEB, 5361 is space debris in LEO originally from a launch on Wed, 30 Mar 1966 UTC launched from the Air Force Western Test Range (AFWTR). Debris objects in space refer to the collection of defunct objects orbiting the Earth. Examples of debris include non-operational satellites, rocket bodies, and fragments generated from explosions, collisions, or faulty payload assembly.

Loading next visibility...
Identifier
5361, 1966-025F
Orbit
LEO
Last TLE update
10 hours ago
Origin
Flag of USAir Force Systems Command (OAR legacy assets) (US)
Manufacturer
Unknown
Mission
Spacecraft
Bus & Motor
Unknown
Mass
Unknown
Launch date (UTC)
1966-03-30 (59 years ago)
Launch vehicle
Unknown
Launch site
Air Force Western Test Range (AFWTR)
Object type
Payload
Rocket body
Debris
Shape & HBR
Unknown
Radar Cross Section
Small (<0.1 m²)

Expand to show TLE details & history

TLE from 10 hours ago
0 OV1-5 DEB
1  5361U 66025F   25182.15538925  .00005337  00000-0  12972-2 0  9991
2  5361 144.6121 156.6482 0024452 282.4269  77.3694 14.48820308317834
Epoch: 2025-07-01T03:43Z
TLE epoch observation values (Epoch: 2025-07-01T03:43:45.631Z)
Latitude
-0°
Longitude
-178.74683°
Altitude
724.727 km
Speed
7.497 km/s
True Right ascension
10h 26m 35s
True Declination
0° 00' 00"
Sunlit
Object was in daylight at epoch
Visualization orbit readout
Latitude
-31.68915°
Longitude
-116.6957°
Altitude
720.283 km
Speed
7.505 km/s
Apparent Right ascension
13h 52m 35s
Apparent Declination
-35° 59' 03"
Sunlit
Object is in full shadow
Visualization observer readout
Local Sidereal Time
01:00:21
Azimuth
286.785° WNW
Elevation
-78.991°
Doppler factor
1
Orbital elements
Apogee altitude
749.976 km
Perigee altitude
715.202 km
Semi-major axis
7,110.726 km
Eccentricity
0.00245
Inclination
144.6121°
RAAN
156.6482°
Arg. of periapsis
282.4269°
True anomaly
Unknown
Mean anomaly
77.3694°
Eccentric anomaly
Unknown
Mean motion
3.6197 °/min
Orbital period
99.46 mins
BSTAR
0.0012972
Loading maneuver chart data...
Loading SW <> Apogee altitude chart data...
Loading historical data...
Loading historical data...
Loading historical data...
Loading historical data...
Loading historical data...
Loading historical data...
Loading historical data...

OV1-5 DEB Visibility forecast

Observer location: undefined°, undefined°

Span
Click to sort rows by Start time (UTC) header in descending order
Start Az.
Max El. time (UTC)
Max El. Az.
Max El.
End time (UTC)
End Az.
7 mins2025-07-01 14:09:26.270Z108.698° ESE2025-07-01 14:12:26.270Z153.578° SSE22.679°2025-07-01 14:16:26.270Z212.397° SW
7 mins2025-07-01 15:44:26.270Z109.073° ESE2025-07-01 15:47:26.270Z183.607° SSW34.917°2025-07-01 15:51:26.270Z242.384° WSW
7 mins2025-07-01 17:18:26.270Z114.625° SE2025-07-01 17:21:26.270Z186.444° SSW38.123°2025-07-01 17:25:26.270Z257.519° W
7 mins2025-07-01 18:52:26.270Z136.167° SSE2025-07-01 18:55:26.270Z188.177° SSW30.113°2025-07-01 18:59:26.270Z258.429° W
4 mins2025-07-01 20:28:26.270Z181.133° SSW2025-07-01 20:30:26.270Z210.181° SW15.493°2025-07-01 20:32:26.270Z237.793° WSW
|